This is the latest recevied weather packets stored in our database for station/object W0RMT-13. If no packets are shown the sender has not sent any weather packets the latest 10 day(s).
| Time | Temp. | Humidity | Pressure | Rain* | Wind** | Luminosity | Snow |
|---|---|---|---|---|---|---|---|
| 1778024273 | 0° C | 99% | 1012.7 hPa | 0 mm | - | 26 W/m² | - |
| 1778023656 | 0° C | 99% | 1012.7 hPa | 0 mm | - | 18 W/m² | - |
| 1778023045 | 0° C | 99% | 1012.7 hPa | 0 mm | - | 12 W/m² | - |
| 1778022437 | 0° C | 99% | 1013 hPa | 0 mm | - | 17 W/m² | - |
| 1778021746 | 0° C | 99% | 1012.7 hPa | 0 mm | - | 11 W/m² | - |
| 1778021140 | 0.56° C | 99% | 1013 hPa | 0 mm | - | 10 W/m² | - |
| 1778020521 | 0.56° C | 99% | 1012.7 hPa | 0 mm | - | 20 W/m² | - |
| 1778019810 | 1.11° C | 99% | 1012.2 hPa | 0 mm | - | 60 W/m² | - |
| 1778019152 | 1.11° C | 99% | 1012.2 hPa | 0.51 mm | - | 17 W/m² | - |
| 1778018522 | 1.11° C | 99% | 1012.7 hPa | 0.51 mm | - | 37 W/m² | - |
| 1778017879 | 1.11° C | 99% | 1011.8 hPa | 0.76 mm | - | 81 W/m² | - |
| 1778017254 | 1.11° C | 99% | 1011.8 hPa | 0.76 mm | - | 76 W/m² | - |
| 1778016572 | 1.67° C | 99% | 1011.8 hPa | 1.02 mm | - | 54 W/m² | - |
| 1778015903 | 2.22° C | 99% | 1012.2 hPa | 0.51 mm | - | 66 W/m² | - |
| 1778015266 | 2.78° C | 99% | 1012.2 hPa | 0.51 mm | - | 79 W/m² | - |
| 1778014661 | 3.33° C | 99% | 1011.8 hPa | 0.51 mm | - | 153 W/m² | - |
| 1778014013 | 3.33° C | 99% | 1011.8 hPa | 0.51 mm | - | 188 W/m² | - |
| 1778013325 | 3.33° C | 99% | 1012.2 hPa | 0.25 mm | - | 118 W/m² | - |
| 1778012672 | 3.33° C | 99% | 1012.7 hPa | 0.25 mm | - | 103 W/m² | - |
| 1778012042 | 3.33° C | 99% | 1012.2 hPa | 0.25 mm | - | 130 W/m² | - |
| 1778011420 | 3.33° C | 99% | 1012.7 hPa | 0.25 mm | - | 60 W/m² | - |
| 1778010793 | 2.78° C | 99% | 1012.2 hPa | 0.25 mm | - | 135 W/m² | - |
| 1778010091 | 2.78° C | 99% | 1012.7 hPa | 0 mm | - | 72 W/m² | - |
| 1778009436 | 2.78° C | 99% | 1012.7 hPa | 0.25 mm | - | 91 W/m² | - |
| 1778008776 | 2.78° C | 99% | 1012.7 hPa | 0.25 mm | - | 61 W/m² | - |
* Rain latest hour (hover to see other rain measurements)
** Current wind speed in m/s (hover to see current wind gust speed)